Find Starlink 5076

NORAD ID: 55401 Int'l Des: 2023-014 Owner: SPXS Country: US Constellation: starlink operational
LEOCIRCULAR

Live Position

Loading 3D Globe...

About Starlink 5076

Description loading...

Upcoming Passes

Passes for default location (London). Set your location on the main map for personalized predictions.

Altitude History

Loading altitude history...

Two-Line Element Set

1 55401U 23014L 26121.80842859 .00000541 00000-0 53176-4 0 9997
2 55401 69.9984 290.4597 0002976 264.6721 95.4098 14.98328693180018
Epoch: May 1, 2026 • Age: 7 hours

Current Status

Altitude 584.7 km
Velocity 7.57 km/s
Sub-Earth Point 65.72°N, 162.23°E
Launch Date Jan 31, 2023
Age 3.2 years
Type internet

Technical Details

Classification Payload
Mass 305.00 kg
Dry Mass 290.00 kg
Total Mass 305.00 kg
Length 0.20 m
Diameter 2.80 m
Span 9.00 m
Shape Box + pan
Manufacturer SPXS
Bus Type Starlink
Phase Status In Orbit
Owner/State SPXS/US

Most Searched